[[{"header":{"parameterUnit":"m.s-1","parameterCategory":1,"la1":30.2991,"la2":30.254,"lo1":-89.0895,"lo2":-89.0444,"dy":0.0017,"dx":0.0017,"nx":28,"ny":28,"refTime":"2024-07-23T09:00:00:Z","depth":0,"parameterNumber":2,"parameterNumberName":"U-component_of_WINDS"},"data":[0,0,0,0,0,0,0,0,0,0,0,0,0,0,0,0,0,0,0,0,0,0,0,0,0,0,0,0,0,0,0,0,0,0,0,0,0,0,0,0,0,0,0,0,0,0,0,0,0,0,0,0,0,0,0,0,0,0,0.4456,0.4456,0,0.4491,0.4492,0.4492,0.4493,0.4493,0.4492,0.4492,0.4529,0.453,0.4531,0,0,0,0,0,0,0,0,0,0,0,0,0,0.4389,0.439,0.4456,0.4456,0.4457,0.4491,0.4492,0.4492,0.4493,0.4493,0.4492,0.4492,0.4528,0.453,0.4531,0,0,0,0,0,0,0,0,0,0,0,0,0,0.4421,0.4391,0.4456,0.4462,0.4462,0.4491,0.4492,0.4492,0.4493,0.4493,0.4492,0.4491,0.4528,0.453,0.4532,0.4557,0,0,0.4538,0.4539,0,0,0,0,0,0,0,0,0.4419,0.4423,0.446,0.4461,0.4462,0.4487,0.4482,0.4514,0.4493,0.4482,0.4492,0.4491,0.4515,0.4518,0.4526,0.4559,0.4561,0.4538,0.4539,0.454,0.4541,0,0,0,0,0,0,0,0.4417,0.4422,0.447,0.4461,0.4462,0.4462,0.4466,0.4488,0.4502,0.4483,0.4483,0.4487,0.4516,0.4524,0.4527,0.4561,0.4538,0.454,0.4541,0.4542,0.4615,0.4615,0,0,0,0,0,0,0.4413,0.442,0.4469,0.4471,0.4438,0.4464,0.4468,0.448,0.4501,0.4504,0.4487,0.4487,0.4521,0.4525,0.4529,0.4559,0.454,0.4542,0.4543,0.4614,0.4615,0.4615,0,0,0,0,0,0,0.4412,0.4418,0.4467,0.4445,0.4452,0.4466,0.4479,0.4481,0.4489,0.4505,0.4508,0.4494,0.4521,0.4526,0.455,0.456,0.4543,0.4545,0.4613,0.4614,0.4615,0.462,0,0,0,0,0,0,0.441,0.4417,0.4427,0.4446,0.4453,0.4488,0.4479,0.4482,0.4493,0.4492,0.4512,0.4514,0.4521,0.4547,0.4552,0.4563,0.4547,0.4612,0.4613,0.4615,0.4619,0.4621,0.4623,0,0,0,0,0,0.4408,0.4428,0.4428,0.4434,0.4466,0.4489,0.4493,0.45,0.4494,0.4504,0.4513,0.4514,0.4558,0.4549,0.4555,0.4566,0.4612,0.4613,0.4615,0.4618,0.462,0.4623,0,0,0,0,0,0,0.4411,0.4431,0.4431,0.4458,0.4471,0.4489,0.4502,0.4502,0.4519,0.4518,0.4526,0.453,0.4553,0.4562,0.4552,0.4591,0.4584,0.4587,0.4585,0.4587,0.4589,0.4586,0.4548,0,0,0,0,0,0.4415,0.4432,0.4448,0.447,0.4477,0.4488,0.4498,0.4502,0.4517,0.4523,0.4535,0.4549,0.4566,0.4577,0.4594,0.462,0.4624,0.4631,0.4633,0.4634,0.4636,0.4649,0.4652,0.462,0.462,0.462,0,0,0.4424,0.4436,0.4446,0.4471,0.4482,0.4499,0.4493,0.4512,0.4524,0.4526,0.4549,0.4558,0.4574,0.4599,0.461,0.4607,0.4646,0.4636,0.4637,0.4639,0.4651,0.4654,0.4657,0.4621,0.4621,0.4621,0,0,0.4447,0.4459,0.4477,0.4488,0.4505,0.4512,0.4516,0.4533,0.4539,0.4562,0.4563,0.4578,0.4608,0.4619,0.4629,0.4654,0.4654,0.4659,0.4669,0.4682,0.4684,0.4687,0.4695,0.4697,0.4662,0.4662,0.4662,0,0.4455,0.4481,0.4487,0.4505,0.4515,0.4517,0.4535,0.4546,0.4567,0.4574,0.457,0.4606,0.4618,0.4644,0.465,0.4658,0.4663,0.4657,0.4683,0.4686,0.4688,0.4696,0.4699,0.4662,0.4662,0.4662,0.4662,0,0.4489,0.4507,0.452,0.4539,0.4551,0.457,0.4578,0.4589,0.4592,0.4599,0.4622,0.4635,0.4654,0.466,0.4664,0.4687,0.4684,0.4682,0.4675,0.4691,0.4699,0.4702,0.4663,0.4663,0.4662,0.4662,0,0,0.4517,0.4538,0.4543,0.4551,0.4569,0.4582,0.46,0.4618,0.4626,0.4641,0.4655,0.4679,0.4677,0.4688,0.4692,0.4703,0.4721,0.4699,0.4699,0.4702,0.4746,0.4747,0.475,0.4721,0.4721,0.4722,0.4744,0,0.4541,0.4572,0.4578,0.4605,0.4621,0.4622,0.4637,0.4649,0.4656,0.467,0.4678,0.4694,0.469,0.4696,0.4707,0.4716,0.4729,0.4715,0.4734,0.4734,0.4729,0.4754,0.4756,0.4776,0.4747,0.4747,0.4748,0,0.4574,0.4588,0.4617,0.463,0.4637,0.4651,0.4666,0.468,0.4693,0.4698,0.4709,0.4711,0.4729,0.4721,0.4745,0.4735,0.4743,0.4748,0.4749,0.4751,0.4742,0.4755,0.4782,0.4785,0.4752,0.4752,0.4752,0,0.4589,0.4616,0.4636,0.4643,0.466,0.4669,0.4677,0.469,0.4699,0.4713,0.4719,0.4735,0.4743,0.4755,0.4762,0.4756,0.4785,0.4778,0.4788,0.4788,0.4794,0.4794,0.4822,0.4801,0.4801,0.4801,0.4801,0,0.4616,0.4633,0.4642,0.4655,0.4674,0.4679,0.4698,0.4705,0.4716,0.473,0.4732,0.4744,0.4752,0.4766,0.4771,0.4789,0.4794,0.4797,0.4798,0.4796,0.4796,0.4801,0.48,0.4802,0.4801,0.4801,0.4801,0,0.4636,0.4644,0.4665,0.4679,0.4683,0.4696,0.4708,0.4719,0.4726,0.4742,0.4747,0.4757,0.4772,0.478,0.48,0.4803,0.4824,0.4825,0.4819,0.4819,0.4829,0.4827,0.4861,0.4865,0.4842,0.4842,0.4843,0,0.4652,0.4665,0.468,0.4689,0.4696,0.4711,0.472,0.4726,0.4736,0.4751,0.476,0.4776,0.4789,0.4814,0.4823,0.4838,0.4838,0.4849,0.484,0.4838,0.4837,0.4836,0.4837,0.485,0.4851,0.4851,0.4851,0,0.4679,0.4682,0.4695,0.4709,0.472,0.4732,0.4743,0.475,0.4758,0.4769,0.4784,0.4794,0.4814,0.4829,0.4844,0.4852,0.4852,0.4853,0.4856,0.4854,0.485,0.4852,0.4822,0.4853,0.4852,0.4852,0.4852,0.4852,0.4697,0.4708,0.472,0.4734,0.4743,0.4753,0.4764,0.4772,0.4785,0.48,0.4803,0.4819,0.4831,0.4851,0.4859,0.4872,0.487,0.4874,0.4875,0.4876,0.4876,0.4849,0.4875,0.4875,0.4875,0.4875,0.4875,0,0.4723,0.473,0.4744,0.4759,0.477,0.4769,0.4781,0.479,0.4805,0.4815,0.4827,0.4845,0.4859,0.4869,0.4883,0.4891,0.4892,0.4895,0.4894,0.4895,0.4878,0.4873,0.4894,0.4894,0.4894,0.4894,0.4894,0.4894,0.4738,0.4756,0.476,0.4782,0.4789,0.4804,0.4811,0.482,0.4829,0.4848,0.4859,0.4865,0.4875,0.489,0.4903,0.4905,0.491,0.4913,0.4915,0.4899,0.4897,0.4895,0.489,0.4914,0.4914,0.4931,0.4931,0.4931]},{"header":{"parameterUnit":"m.s-1","parameterCategory":1,"la1":30.2991,"la2":30.254,"lo1":-89.0895,"lo2":-89.0444,"dy":0.0017,"dx":0.0017,"nx":28,"ny":28,"refTime":"2024-07-23T09:00:00:Z","depth":0,"parameterNumber":3,"parameterNumberName":"V-component_of_WINDS"},"data":[0,0,0,0,0,0,0,0,0,0,0,0,0,0,0,0,0,0,0,0,0,0,0,0,0,0,0,0,0,0,0,0,0,0,0,0,0,0,0,0,0,0,0,0,0,0,0,0,0,0,0,0,0,0,0,0,0,0,4.8669,4.8671,0,4.8802,4.8803,4.8805,4.8774,4.8771,4.8769,4.8766,4.8894,4.89,4.8906,0,0,0,0,0,0,0,0,0,0,0,0,0,4.8381,4.8387,4.8669,4.8671,4.8673,4.8802,4.8803,4.8805,4.8774,4.8771,4.8768,4.8765,4.8892,4.8899,4.8906,0,0,0,0,0,0,0,0,0,0,0,0,0,4.8509,4.8388,4.8669,4.8673,4.8675,4.8801,4.8803,4.8806,4.8775,4.8771,4.8767,4.8764,4.889,4.8899,4.8907,4.9036,0,0,4.8933,4.8937,0,0,0,0,0,0,0,0,4.8502,4.852,4.8671,4.8673,4.8675,4.8768,4.8749,4.8882,4.8776,4.8737,4.8766,4.8762,4.8855,4.8866,4.8899,4.9042,4.9047,4.8934,4.8939,4.8943,4.8946,0,0,0,0,0,0,0,4.8493,4.8514,4.8721,4.8673,4.8676,4.8665,4.8679,4.8774,4.8815,4.874,4.8738,4.8754,4.8855,4.8891,4.8902,4.9049,4.8934,4.8942,4.8947,4.895,4.9301,4.9305,0,0,0,0,0,0,4.8483,4.8507,4.8717,4.8725,4.8578,4.8673,4.8689,4.8741,4.8814,4.8821,4.8757,4.8752,4.8878,4.8892,4.8906,4.906,4.8943,4.8951,4.8956,4.9296,4.9302,4.9306,0,0,0,0,0,0,4.8477,4.8503,4.8712,4.8616,4.8642,4.8683,4.8741,4.8746,4.8782,4.8827,4.8834,4.8787,4.8875,4.8894,4.9003,4.9064,4.8955,4.8963,4.9292,4.9298,4.9304,4.9369,0,0,0,0,0,0,4.8469,4.8501,4.8552,4.8617,4.8647,4.881,4.8745,4.8751,4.8798,4.8792,4.8856,4.8863,4.8874,4.8991,4.9012,4.9073,4.897,4.9286,4.9294,4.9302,4.9361,4.9376,4.9389,0,0,0,0,0,4.8459,4.8564,4.8555,4.858,4.8712,4.8814,4.883,4.8842,4.8803,4.8853,4.8882,4.8861,4.9054,4.9002,4.9026,4.9091,4.9283,4.9292,4.9301,4.9355,4.9373,4.9389,0,0,0,0,0,0,4.8502,4.8572,4.8563,4.8693,4.8748,4.8808,4.8872,4.8862,4.8927,4.8919,4.8929,4.8943,4.9055,4.9084,4.9025,4.9217,4.9162,4.9176,4.9195,4.9213,4.9226,4.9216,4.8977,0,0,0,0,0,4.8528,4.8607,4.8662,4.8771,4.8799,4.8831,4.8876,4.8881,4.8937,4.8959,4.8996,4.9049,4.9121,4.9169,4.9238,4.9365,4.9377,4.9421,4.9435,4.9446,4.9458,4.9526,4.9545,4.9337,4.9336,4.9336,0,0,4.8579,4.8627,4.8676,4.8781,4.8824,4.8903,4.8851,4.8937,4.8995,4.8971,4.9078,4.9106,4.9166,4.9285,4.9339,4.9312,4.9519,4.9458,4.9467,4.9473,4.9537,4.9557,4.9574,4.9343,4.9342,4.9341,0,0,4.8713,4.8759,4.8854,4.8898,4.8965,4.8986,4.9008,4.9071,4.9089,4.9197,4.918,4.9247,4.9372,4.9415,4.9453,4.9602,4.9585,4.9624,4.9696,4.9762,4.9778,4.9793,4.9844,4.9862,4.9636,4.9636,4.9636,0,4.8769,4.889,4.8903,4.8991,4.9036,4.9021,4.9115,4.9157,4.9241,4.9272,4.9241,4.9397,4.9436,4.9563,4.96,4.9632,4.9655,4.9616,4.9775,4.979,4.9804,4.9852,4.9872,4.9641,4.964,4.964,4.9639,0,4.8953,4.9037,4.9105,4.919,4.9242,4.9333,4.9357,4.9408,4.9408,4.9431,4.9538,4.9585,4.9662,4.9693,4.9693,4.982,4.9801,4.9773,4.9717,4.9828,4.9873,4.9892,4.9647,4.9645,4.9644,4.9643,0,0,4.9118,4.9209,4.9234,4.9271,4.9343,4.9407,4.9495,4.9573,4.9616,4.9674,4.9747,4.9852,4.9827,4.987,4.9874,4.9931,5.0044,4.9896,4.9897,4.992,5.0184,5.0204,5.0226,5.0033,5.0037,5.004,5.0178,0,4.9258,4.9417,4.9431,4.9572,4.9648,4.9634,4.971,4.9761,4.9784,4.9849,4.9873,4.9948,4.9909,4.9935,4.9991,5.0018,5.0097,5.0009,5.0098,5.0101,5.0082,5.025,5.0271,5.04,5.0197,5.02,5.0202,0,4.9442,4.9508,4.9658,4.9718,4.975,4.9819,4.989,4.9955,5.001,5.0023,5.0071,5.0067,5.0154,5.0096,5.0215,5.0155,5.0192,5.021,5.0215,5.0223,5.0157,5.026,5.0442,5.046,5.0231,5.0228,5.0226,0,4.9545,4.9672,4.9777,4.981,4.9883,4.9931,4.9963,5.0016,5.0061,5.0123,5.0152,5.0222,5.026,5.0313,5.0326,5.0283,5.0444,5.0388,5.0454,5.0454,5.0488,5.0485,5.0676,5.0514,5.0514,5.0514,5.0513,0,4.9699,4.9791,4.9824,4.9889,4.999,5.0004,5.0103,5.0131,5.0178,5.0246,5.0237,5.03,5.0315,5.038,5.0391,5.0486,5.0504,5.0514,5.0516,5.0515,5.0513,5.0538,5.0529,5.0519,5.0518,5.0517,5.0516,0,4.9831,4.9858,4.9972,5.0032,5.0049,5.0121,5.0171,5.0231,5.0253,5.0338,5.0359,5.0392,5.0468,5.0488,5.0578,5.0585,5.0697,5.0691,5.0679,5.0678,5.0743,5.0736,5.0956,5.0984,5.0805,5.0807,5.0808,0,4.9927,4.9998,5.0066,5.0112,5.0146,5.022,5.0267,5.0282,5.0331,5.0399,5.0451,5.0526,5.0587,5.0708,5.0739,5.0807,5.0801,5.0873,5.0811,5.0807,5.08,5.0795,5.0801,5.0884,5.0886,5.0888,5.0889,0,5.0094,5.0103,5.0172,5.0246,5.0302,5.036,5.0416,5.0453,5.0475,5.0529,5.0608,5.0656,5.0749,5.0822,5.0891,5.092,5.0908,5.0909,5.0927,5.0926,5.0916,5.092,5.0709,5.0903,5.0902,5.0901,5.09,5.09,5.0209,5.0271,5.0328,5.0404,5.0448,5.05,5.0559,5.0589,5.0656,5.0734,5.0738,5.0823,5.0875,5.0966,5.1,5.1064,5.1042,5.1069,5.1076,5.1082,5.1087,5.0907,5.1077,5.1076,5.1076,5.1076,5.1075,0,5.0374,5.041,5.0481,5.0559,5.0619,5.0604,5.0664,5.0714,5.079,5.084,5.0901,5.099,5.1061,5.1097,5.1167,5.1212,5.1208,5.1229,5.1225,5.1232,5.1104,5.108,5.1232,5.1232,5.1232,5.1232,5.1231,5.1231,5.0466,5.0569,5.0585,5.0707,5.0742,5.0827,5.0862,5.0909,5.0949,5.105,5.111,5.1134,5.1178,5.1251,5.1314,5.1323,5.1348,5.1372,5.1378,5.1257,5.1241,5.1226,5.1204,5.1378,5.1379,5.15,5.1501,5.1502]}]]